Flag for U.S.A. Weather past 2 weeks in Wright, Florida, U.S.A.

Now
73 °F

Clear.


Feels Like: 71 °F
Forecast: 73 / 91 °F
Wind: 3 mph from Northeast

Location: Hurlburt Field

Current Time: Sep 1, 2015 at 5:50:06 AM

Latest Report: Sep 1, 2015 at 4:58 AM


Visibility: 10 mi

Pressure: 30.04 "Hg

Humidity: 90%

Dew point: 70 °F

Location of WrightLocation

Historic Weather in Wright — Graph

°F

Wright temperature yesterday

Maximum temperature yesterday: 90 °F (at 11:58 AM)
Minimum temperature yesterday: 71 °F (at 5:58 AM)
Average temperature yesterday: 81 °F

Past Weeks' High & Low Weather Summary

 TemperatureHumidityPressure
High94 °F (Aug 23, 12:58 PM)94% (Aug 17, 10:01 AM)30.11 "Hg (Aug 17, 10:01 AM)
Low62 °F (Aug 27, 5:58 AM)30% (Aug 25, 3:58 PM)29.87 "Hg (Aug 24, 6:58 PM)
Average81 °F71%29.99 "Hg
* Reported Aug 17 4:58 AM — Sep 1 4:58 AM, Wright, Weather by CustomWeather, © 2015

Note: Actual official high and low records may vary slightly from our data, if they occured in-between our weather recording intervals... More about our weather records

Advertising

Wright weather history for previous 24 hours

 ConditionsComfort  
Time TempWeatherWind HumidityBarometerVisibility
4:58 AM
Tue, Sep 1
73 °FClear.3 mph90%30.04 "Hg10 mi
3:58 AM73 °FClear.5 mph90%30.02 "Hg10 mi
2:58 AM73 °FClear.3 mph90%30.02 "Hg10 mi
1:58 AM75 °FClear.2 mph88%30.02 "Hg10 mi
12:58 AM77 °FClear.5 mph80%30.03 "Hg10 mi
11:58 PM
Mon, Aug 31
77 °FClear.2 mph83%30.04 "Hg10 mi
9:58 PM78 °FClear.6 mph86%30.03 "Hg10 mi
8:58 PM84 °FClear.2 mph67%30.02 "Hg10 mi
7:58 PM84 °FClear.No wind65%30.01 "Hg10 mi
6:58 PM85 °FPassing clouds.5 mph61%30.01 "Hg10 mi
5:58 PM87 °FSunny.5 mph58%29.99 "Hg10 mi
3:58 PM88 °FPassing clouds.9 mph55%30.01 "Hg10 mi
2:58 PM88 °FSunny.9 mph57%30.01 "Hg10 mi
1:58 PM88 °FSunny.10 mph55%30.03 "Hg10 mi
12:58 PM88 °FSunny.9 mph55%30.04 "Hg10 mi
11:58 AM90 °FSunny.8 mph51%30.06 "Hg10 mi
10:58 AM88 °FSunny.6 mph52%30.07 "Hg10 mi
9:58 AM85 °FSunny.2 mph56%30.06 "Hg10 mi
8:58 AM82 °FSunny.3 mph64%30.05 "Hg10 mi
7:58 AM76 °FSunny.3 mph83%30.04 "Hg10 mi
6:58 AM71 °FSunny.5 mph90%30.02 "Hg10 mi
5:58 AM71 °FClear.2 mph91%29.99 "Hg10 mi
Weather by CustomWeather, © 2015

See weather overviewHow to use our weather pages